Date,TemperatureHighF,TemperatureAvgF,TemperatureLowF,DewpointHighF,DewpointAvgF,DewpointLowF,HumidityHigh,HumidityAvg,HumidityLow,PressureMaxIn,PressureMinIn,WindSpeedMaxMPH,WindSpeedAvgMPH,GustSpeedMaxMPH,PrecipitationSumIn
2012-12-1,45.0,43.1,42.0,-99.9,-99.9,-99.9,0,0,100,0.00,40.00,13,7,18,0.00
2012-12-2,40.0,37.4,36.0,-99.9,-99.9,-99.9,0,0,100,0.00,40.00,11,9,13,0.00
2012-12-4,47.0,47.0,47.0,-99.9,-99.9,-99.9,0,0,100,0.00,40.00,13,13,18,0.00
2012-12-5,48.0,42.7,38.0,-99.9,-99.9,-99.9,0,0,100,0.00,40.00,18,15,27,0.00
2012-12-6,36.0,35.2,34.0,-99.9,-99.9,-99.9,0,0,100,0.00,40.00,22,15,25,0.00
2012-12-7,36.0,33.5,31.0,-99.9,-99.9,-99.9,0,0,100,0.00,40.00,16,10,20,0.00
2012-12-8,34.0,30.3,26.0,-99.9,-99.9,-99.9,0,0,100,0.00,40.00,11,9,16,0.00
2012-12-9,27.0,23.3,19.0,-99.9,-99.9,-99.9,0,0,100,0.00,40.00,20,12,25,0.00
2012-12-10,36.0,34.8,30.0,-99.9,-99.9,-99.9,0,0,100,0.00,40.00,18,17,22,0.00
2012-12-11,41.0,37.6,36.0,-99.9,-99.9,-99.9,0,0,100,0.00,40.00,18,15,22,0.00
2012-12-12,37.0,35.5,33.0,-99.9,-99.9,-99.9,0,0,100,0.00,40.00,11,7,13,0.00
2012-12-13,36.0,34.7,32.0,-99.9,-99.9,-99.9,0,0,100,0.00,40.00,11,8,16,0.00
2012-12-14,31.0,24.7,20.0,-99.9,-99.9,-99.9,0,0,100,0.00,40.00,7,5,9,0.00
2012-12-15,30.0,26.8,25.0,-99.9,-99.9,-99.9,0,0,100,0.00,40.00,7,4,9,0.00
2012-12-16,35.0,33.2,28.0,-99.9,-99.9,-99.9,0,0,100,0.00,40.00,18,11,22,0.00
2012-12-17,39.0,36.3,33.0,-99.9,-99.9,-99.9,0,0,100,0.00,40.00,20,15,31,0.00
2012-12-18,35.0,30.5,27.0,-99.9,-99.9,-99.9,0,0,100,0.00,40.00,18,9,25,0.00
2012-12-19,34.0,34.0,34.0,-99.9,-99.9,-99.9,0,0,100,0.00,40.00,13,13,18,0.00
2012-12-20,42.0,37.2,33.0,-99.9,-99.9,-99.9,0,0,100,0.00,40.00,16,12,20,0.00
2012-12-21,43.0,38.7,34.0,-99.9,-99.9,-99.9,0,0,100,0.00,40.00,11,7,13,0.00
2012-12-22,41.0,37.5,34.0,-99.9,-99.9,-99.9,0,0,100,0.00,40.00,18,12,22,0.00
2012-12-23,39.0,37.2,34.0,-99.9,-99.9,-99.9,0,0,100,0.00,40.00,11,8,16,0.00
2012-12-24,28.0,21.0,19.0,-99.9,-99.9,-99.9,0,0,100,0.00,40.00,22,20,27,0.00
2012-12-25,22.0,20.2,18.0,-99.9,-99.9,-99.9,0,0,100,0.00,40.00,13,10,16,0.00
2012-12-26,24.0,20.0,19.0,-99.9,-99.9,-99.9,0,0,100,0.00,40.00,9,7,11,0.00
2012-12-27,32.0,24.8,22.0,-99.9,-99.9,-99.9,0,0,100,0.00,40.00,16,5,20,0.00
2012-12-28,32.0,26.4,24.0,-99.9,-99.9,-99.9,0,0,100,0.00,40.00,16,6,20,0.00
2012-12-29,32.0,26.4,23.0,-99.9,-99.9,-99.9,0,0,100,0.00,40.00,9,6,13,0.00
2012-12-30,26.0,24.6,24.0,-99.9,-99.9,-99.9,0,0,100,0.00,40.00,7,4,9,0.00
2012-12-31,29.0,25.5,23.0,-99.9,-99.9,-99.9,0,0,100,0.00,40.00,9,5,11,0.00